Location: Santa Maria di Sala
(45.5070°N, 12.0300°E)
Time: 15:30:38
(UTC+02:00)

Envisat - Pass Details

Date: 20 April 2024
Orbit: 762 x 764 km, 98.3° (Epoch: 26 May)

Event Time Altitude Azimuth Distance (km) Brightness Sun altitude
Rises 04:16:58 0° 17° (NNE) 3,239 7.2 -19.2°
Reaches altitude 10° 04:19:20 10° 22° (NNE) 2,308 6.4 -18.8°
Maximum altitude 04:24:19 56° 100° (E) 908 3.6 -18.2°
Enters shadow 04:28:44 13° 177° (S) 2,084 4.9 -17.6°
